Home > Weather > Rust > Past weeks

Flag for Austria Weather for the Past 2 Weeks in Rust, Burgenland, Austria

Now
39 °F

Overcast.


Feels Like: 36 °F
Forecast: 40 / 46 °F
Wind: 5 mph from East

Location: Eisenstadt

Current Time: Feb 14, 2016 at 2:14:51 PM

Latest Report: Feb 14, 2016 at 1:00 PM


Visibility: 11 mi

Pressure: 29.32 "Hg

Humidity: 89%

Dew point: 36 °F

Location of RustLocation

Historic Weather in Rust — Graph

°F

Rust Temperature Yesterday

Maximum temperature yesterday: 46 °F (at 3:00 PM)
Minimum temperature yesterday: 35 °F (at 7:00 AM)
Average temperature yesterday: 39 °F

High & Low Weather Summary for the Past Weeks

 TemperatureHumidityPressure
High60 °F (Feb 1, 1:00 PM)100% (Jan 30, 8:00 PM)30.39 "Hg (Jan 30, 8:00 PM)
Low30 °F (Feb 12, 7:00 AM)42% (Feb 7, 11:00 AM)29.26 "Hg (Feb 10, 10:00 AM)
Average43 °F75%29.84 "Hg
* Reported Jan 30 4:00 PM — Feb 14 1:00 PM, Rust, Weather by CustomWeather, © 2016

Note: Actual official high and low records may vary slightly from our data, if they occured in-between our weather recording intervals... More about our weather records

Advertising

Rust Weather History for the Previous 24 Hours

 ConditionsComfort  
Time TempWeatherWind HumidityBarometerVisibility
1:00 PM
Sun, Feb 14
39 °FOvercast.5 mph89%29.32 "Hg11 mi
12:00 PM37 °FChilly.5 mph92%29.35 "HgN/A
11:00 AM37 °FChilly.2 mph91%29.35 "HgN/A
10:00 AM36 °FChilly.3 mph94%29.35 "HgN/A
9:00 AM35 °FChilly.2 mph95%29.35 "HgN/A
8:00 AM35 °FChilly.1 mph95%29.35 "HgN/A
7:00 AM35 °FFog.1 mph95%29.35 "Hg7 mi
6:00 AM35 °FFog.1 mph97%29.32 "Hg1 mi
5:00 AM35 °FFog.2 mph97%29.32 "Hg1 mi
4:00 AM35 °FFog.2 mph95%29.32 "Hg1 mi
3:00 AM35 °FChilly.1 mph95%29.32 "HgN/A
2:00 AM35 °FChilly.2 mph95%29.32 "HgN/A
1:00 AM36 °FChilly.3 mph94%29.32 "HgN/A
10:00 PM
Sat, Feb 13
36 °FClear.3 mph92%29.35 "Hg12 mi
9:00 PM36 °FChilly.3 mph91%29.35 "HgN/A
8:00 PM38 °FChilly.3 mph89%29.38 "HgN/A
7:00 PM39 °FClear.2 mph85%29.38 "Hg12 mi
6:00 PM40 °FQuite cool.2 mph79%29.38 "HgN/A
5:00 PM43 °FQuite cool.2 mph73%29.38 "HgN/A
4:00 PM46 °FSunny.3 mph60%29.35 "Hg14 mi
3:00 PM46 °FCool.1 mph60%29.35 "HgN/A
2:00 PM45 °FCool.3 mph62%29.35 "HgN/A
Weather by CustomWeather, © 2016

See weather overviewHow to use our weather pages